Regional Weather Roundup
Issued by NWS

Home | Current Version | Previous Version | Text Only | Print | Product List | Glossary Off
Versions: 1 2 3 4 5 6 7 8 9 10 11 12 13 14 15 16 17 18 19 20 21 22 23 24 25 26 27 28 29 30 31 32 33 34 35 36 37 38 39 40 41 42 43 44 45 46 47 48 49 50

203
ASUS43 KBIS 211902
RWRND

NORTH DAKOTA REGIONAL WEATHER ROUNDUP
NATIONAL WEATHER SERVICE BISMARCK ND
100 PM CST TUE NOV 21 2017

NOTE: "FAIR" INDICATES FEW OR NO CLOUDS BELOW 12,000 FEET WITH NO
SIGNIFICANT WEATHER AND/OR OBSTRUCTIONS TO VISIBILITY.


NDZ001>003-009>011-017-212000-
NORTHWEST NORTH DAKOTA

CITY           SKY/WX    TMP DP  RH WIND       PRES   REMARKS
WILLISTON      SUNNY     13  -1  54 W12       30.40F WCI  -1
MINOT          CLOUDY    15   4  61 W14       30.34S WCI   0
MINOT AFB      CLOUDY    12   3  65 W16       30.33S WCI  -4
$$

NDZ018>021-031>035-040>046-212000-
SOUTHWEST NORTH DAKOTA

CITY           SKY/WX    TMP DP  RH WIND       PRES   REMARKS
BISMARCK       CLOUDY    22   7  52 NW12      30.38F WCI  10
DICKINSON      SUNNY     18   1  47 W15       30.30F WCI   4
GARRISON         N/A     11   3  70 W16       30.35S WCI  -6
HETTINGER ARPT SUNNY     19   0  43 W15G21    30.33F WCI   5
$$

NDZ004>008-012>016-024-026-027-054-212000-
NORTHEAST NORTH DAKOTA

CITY           SKY/WX    TMP DP  RH WIND       PRES   REMARKS
GRAND FORKS    PTSUNNY   20  11  68 NW17G28   30.31R WCI   5
GRND FRKS AFB  MOSUNNY   19   9  65 NW15G23   30.31R WCI   5
DEVILS LAKE    FLURRIES  16   9  74 W14       30.31S WCI   2
$$

NDZ022-023-025-028>030-036>039-047>053-212000-
SOUTHEAST NORTH DAKOTA

CITY           SKY/WX    TMP DP  RH WIND       PRES   REMARKS
FARGO          PTSUNNY   23  10  57 NW21G28   30.31R WCI   8
JAMESTOWN      MOSUNNY   18   8  65 NW16G25   30.31F WCI   3
$$





USA.gov is the U.S. government's official web portal to all federal, state and local government web resources and services.